CAPE
0 0 1 2 5 0 1 0 0 0 0 0 0 0 0 0 0 0 0 0 0 0 0 0 0 0 0 0 0 0 0 0 0 0 0 0 0 0 0 0 0 0 0 0 247
2 0 0 11 0 0 0 0 0 0 0 0 0 0 0 0 0 0 0 0 0 0 0 0 0 0 0 0 0 0 0 0 0 0 0 0 0 0 0 0 0 0 0 0 21
9 5 0 14 11 8 4 0 0 0 0 0 0 0 0 0 0 0 0 0 0 0 0 0 0 0 0 0 0 0 0 0 0 0 0 0 0 0 0 0 0 0 0 0 0
1 4 1 0 1 10 5 0 0 0 0 0 0 0 0 0 0 0 0 0 0 0 0 0 0 0 0 0 0 0 0 0 0 0 0 0 0 0 0 0 0 0 0 0 0
4 0 4 1 1 0 0 2 1 0 0 0 0 0 0 0 0 0 0 0 0 0 0 0 0 0 0 0 0 0 0 0 0 0 0 0 0 0 0 0 0 0 0 0 0
10 14 11 5 1 0 0 0 2 0 0 2 0 0 0 0 0 0 0 0 0 0 0 0 0 0 0 0 0 0 0 0 0 0 0 0 0 0 0 0 0 0 0 0 0
25 29 18 6 0 0 0 0 0 2 0 0 5 1 2 0 0 0 0 0 0 0 0 0 0 0 0 0 0 0 0 0 0 0 0 0 0 0 0 0 0 0 0 0 0
36 52 28 0 0 6 0 0 0 0 2 0 11 8 6 0 0 0 0 0 0 0 0 0 0 0 0 0 0 0 0 0 0 0 0 0 0 0 0 0 0 0 0 0 0
55 81 28 17 19 0 0 0 0 0 2 0 35 8 1 0 0 0 0 0 0 0 0 0 0 0 0 0 0 0 0 0 0 0 0 0 0 0 0 0 0 0 0 0 0
64 70 61 35 28 0 0 0 0 43 26 53 31 2 0 0 0 0 0 0 0 0 0 0 0 0 0 0 0 0 0 0 0 0 0 0 0 0 0 0 0 0 0 0 0
79 79 87 49 7 0 0 0 16 16 29 0 9 0 0 0 0 0 0 0 0 0 0 0 0 0 0 0 0 0 0 0 0 0 0 0 0 0 0 0 0 0 0 0 0
101 88 83 37 3 0 0 1 32 8 22 2 0 19 14 0 0 0 0 0 0 0 0 0 0 0 0 0 0 0 0 0 0 0 0 0 0 0 0 0 0 0 0 0 0
77 93 75 47 10 13 11 0 13 9 39 5 0 0 30 0 0 0 0 0 0 0 0 0 0 0 0 0 0 0 0 0 0 0 0 0 0 0 0 0 0 0 0 0 0
59 63 64 44 2 24 57 71 16 135 51 1 0 2 10 50 25 0 0 0 0 0 0 0 0 0 0 0 0 0 0 0 0 0 0 0 0 0 0 0 0 0 0 0 0
82 97 81 15 61 67 66 42 0 185 22 0 0 0 0 17 0 7 7 0 0 0 0 0 0 0 0 0 0 0 0 0 0 4 4 0 0 0 0 0 0 0 0 0 0
70 77 89 52 101 37 81 50 76 105 18 0 5 23 49 27 3 13 14 17 6 2 0 0 0 0 0 0 0 1 4 0 0 13 38 0 0 0 0 0 0 0 0 0 0
119 140 96 88 29 130 110 122 68 109 20 25 16 32 21 38 23 22 68 29 36 18 14 0 0 0 0 0 0 15 34 30 50 65 3 0 1 0 0 0 0 0 0 0 0
181 108 61 131 164 164 108 115 76 38 17 40 45 36 18 20 21 42 30 82 67 29 7 3 20 0 0 0 0 0 17 23 33 8 0 0 2 0 0 0 0 0 0 0 0
158 237 207 301 294 243 166 118 41 37 3 0 16 5 75 40 13 37 34 61 60 64 55 21 13 0 0 0 0 0 41 0 53 19 7 2 0 0 0 0 0 0 0 0 0
255 174 86 133 378 245 106 57 12 0 0 0 47 30 26 90 83 36 17 15 44 54 63 6 45 4 3 0 0 1 1 51 83 40 14 0 0 0 0 0 0 0 0 0 0
178 188 162 234 299 141 103 18 1 0 0 19 4 52 37 5 12 124 64 0 3 8 50 37 95 1 52 69 5 2 9 51 87 68 81 34 8 0 0 0 0 0 0 0 0
89 179 92 230 144 90 72 9 2 0 0 0 3 11 14 6 35 17 6 50 8 8 33 17 84 88 68 60 31 57 42 93 106 123 36 3 1 0 0 0 0 0 0 0 0
212 114 11 237 56 72 140 33 24 4 3 2 3 2 34 45 43 6 4 1 0 1 60 99 118 163 87 115 118 78 74 74 189 195 108 27 1 0 0 0 0 0 0 0 0
107 141 58 21 75 71 89 53 25 12 12 9 10 17 5 15 3 9 3 0 0 3 4 5 49 102 79 19 3 73 75 77 284 136 24 111 0 0 0 0 0 0 0 0 0
49 99 70 20 33 31 57 37 44 30 28 26 30 39 36 36 24 29 2 0 0 0 6 24 95 139 20 28 95 105 122 106 259 66 170 0 0 0 0 0 0 0 0 0 0
72 127 61 46 44 75 48 47 26 11 29 35 58 61 87 98 49 47 14 7 7 0 0 9 30 154 52 6 44 89 91 119 174 176 184 23 12 0 0 6 9 0 0 0 0
11 63 98 32 67 93 62 24 15 33 23 24 28 43 38 0 24 47 55 64 34 29 37 29 19 16 23 8 78 74 56 59 39 84 132 193 3 0 0 0 0 0 0 0 0
CIN
-0 -0 -0 -0 -0 -0 -4 -0 -0 -0 -0 -0 -0 -0 -0 -0 -0 -0 -0 -0 -0 -0 -0 -0 -0 -0 -0 -0 -0 -0 -0 -0 -0 -0 -0 -0 -0 -0 -0 -0 -0 -0 -0 -0 -210
-0 -0 -0 -0 -0 -0 -0 -0 -16 -0 -0 -0 -0 -0 -0 -0 -0 -0 -0 -0 -0 -0 -0 -0 -0 -0 -0 -0 -0 -0 -0 -0 -0 -0 -0 -0 -0 -0 -0 -0 -0 -0 -0 -0 -262
-0 -0 -0 -0 -0 -0 -0 -0 -0 -0 -0 -0 -0 -0 -0 -0 -0 -0 -0 -0 -0 -0 -0 -0 -0 -0 -0 -0 -0 -0 -0 -0 -0 -0 -0 -0 -0 -0 -0 -0 -0 -0 -0 -0 -0
-0 -0 -0 -0 -0 -0 -0 -0 -0 -0 -0 -0 -0 -0 -0 -0 -0 -0 -0 -0 -0 -0 -0 -0 -0 -0 -0 -0 -0 -0 -0 -0 -0 -0 -0 -0 -0 -0 -0 -0 -0 -0 -0 -0 -0
-1 -0 -0 -0 -0 -0 -0 -0 -0 -0 -0 -0 -0 -0 -0 -0 -0 -0 -0 -0 -0 -0 -0 -0 -0 -0 -0 -0 -0 -0 -0 -0 -0 -0 -0 -0 -0 -0 -0 -0 -0 -0 -0 -0 -0
-0 -0 -0 -0 -0 -0 -0 -0 -0 -0 -0 -0 -0 -0 -0 -0 -0 -0 -0 -0 -0 -0 -0 -0 -0 -0 -0 -0 -0 -0 -0 -0 -0 -0 -0 -0 -0 -0 -0 -0 -0 -0 -0 -0 -0
-0 -0 -1 -1 -0 -0 -0 -0 -0 -0 -0 -0 -0 -1 -0 -0 -0 -0 -0 -0 -0 -0 -0 -0 -0 -0 -0 -0 -0 -0 -0 -0 -0 -0 -0 -0 -0 -0 -0 -0 -0 -0 -0 -0 -0
-0 -0 -0 -0 -0 -0 -0 -0 -0 -0 -0 -0 -0 -0 -0 -0 -0 -0 -0 -0 -0 -0 -0 -0 -0 -0 -0 -0 -0 -0 -0 -0 -0 -0 -0 -0 -0 -0 -0 -0 -0 -0 -0 -0 -0
-0 -0 -1 -1 -0 -0 -0 -0 -0 -0 -1 -0 -1 -0 -0 -0 -0 -0 -0 -0 -0 -0 -0 -0 -0 -0 -0 -0 -0 -0 -0 -0 -0 -0 -0 -0 -0 -0 -0 -0 -0 -0 -0 -0 -0
-1 -0 -0 -1 -1 -0 -0 -0 -0 -6 -8 -0 -8 -0 -0 -0 -0 -0 -0 -0 -0 -0 -0 -0 -0 -0 -0 -0 -0 -0 -0 -0 -0 -0 -0 -0 -0 -0 -0 -0 -0 -0 -0 -0 -0
-5 -4 -1 -2 -11 -0 -0 -0 -0 -0 -0 -0 -0 -0 -0 -0 -0 -0 -0 -0 -0 -0 -0 -0 -0 -0 -0 -0 -0 -0 -0 -0 -0 -0 -0 -0 -0 -0 -0 -0 -0 -0 -0 -0 -0
-2 -3 -3 -6 -19 -0 -0 -0 -0 -0 -0 -0 -0 -0 -0 -0 -0 -0 -0 -0 -0 -0 -0 -0 -0 -0 -0 -0 -0 -0 -0 -0 -0 -0 -0 -0 -0 -0 -0 -0 -0 -0 -0 -0 -0
-5 -3 -2 -3 -9 -2 -2 -0 -8 -12 -0 -0 -0 -0 -0 -0 -0 -0 -0 -0 -0 -0 -0 -0 -0 -0 -0 -0 -0 -0 -0 -0 -0 -0 -0 -0 -0 -0 -0 -0 -0 -0 -0 -0 -0
-9 -5 -5 -3 -0 -0 -0 -5 -25 -0 -0 -0 -0 -0 -0 -0 -0 -0 -0 -0 -0 -0 -0 -0 -0 -0 -0 -0 -0 -0 -0 -0 -0 -0 -0 -0 -0 -0 -0 -0 -0 -0 -0 -0 -0
-4 -1 -3 -15 -0 -0 -0 -17 -0 -0 -0 -0 -0 -0 -0 -0 -0 -0 -0 -0 -0 -0 -0 -0 -0 -0 -0 -0 -0 -0 -0 -0 -0 -0 -0 -0 -0 -0 -0 -0 -0 -0 -0 -0 -0
-6 -1 -1 -1 -0 -1 -0 -18 -6 -0 -0 -0 -0 -0 -0 -0 -0 -0 -0 -0 -0 -14 -0 -0 -0 -0 -0 -0 -0 -0 -0 -0 -0 -0 -0 -0 -0 -0 -0 -0 -0 -0 -0 -0 -0
-5 -0 -0 -0 -6 -0 -0 -0 -0 -0 -1 -0 -0 -0 -0 -0 -0 -0 -0 -0 -0 -1 -0 -0 -0 -0 -0 -0 -0 -0 -0 -0 -0 -0 -0 -0 -0 -0 -0 -0 -0 -0 -0 -0 -0
-3 -4 -0 -0 -0 -0 -0 -0 -0 -0 -2 -0 -2 -0 -0 -0 -0 -0 -0 -0 -0 -0 -0 -0 -0 -0 -0 -0 -0 -0 -0 -0 -0 -0 -0 -0 -0 -0 -0 -0 -0 -0 -0 -0 -0
-3 -0 -0 -0 -0 -0 -0 -0 -0 -0 -0 -0 -4 -0 -0 -0 -2 -0 -2 -0 -0 -0 -0 -0 -0 -0 -0 -0 -0 -0 -0 -0 -0 -2 -3 -0 -0 -0 -0 -0 -0 -0 -0 -0 -0
-0 -0 -0 -9 -0 -0 -0 -0 -0 -0 -0 -14 -0 -4 -3 -0 -0 -0 -1 -0 -0 -0 -0 -0 -0 -0 -0 -0 -0 -0 -0 -0 -1 -0 -0 -0 -0 -0 -0 -0 -0 -0 -0 -0 -0
-0 -0 -0 -0 -0 -0 -0 -0 -12 -0 -0 -3 -0 -0 -0 -10 -2 -0 -0 -0 -0 -1 -0 -0 -0 -0 -0 -0 -0 -0 -0 -0 -0 -0 -0 -0 -0 -0 -0 -0 -0 -0 -0 -0 -0
-0 -0 -10 -0 -0 -0 -0 -0 -0 -0 -0 -0 -0 -0 -0 -0 -0 -0 -0 -0 -0 -0 -0 -0 -0 -0 -0 -0 -0 -0 -0 -0 -4 -0 -5 -38 -0 -0 -0 -0 -0 -0 -0 -0 -0
-0 -0 -0 -0 -0 -0 -0 -0 -0 -0 -0 -0 -0 -0 -0 -0 -1 -0 -0 -2 -0 -0 -2 -0 -0 -0 -0 -0 -0 -0 -0 -0 -0 -29 -10 -2 -0 -0 -0 -0 -0 -0 -0 -0 -0
-0 -0 -0 -0 -0 -0 -0 -0 -0 -1 -0 -0 -0 -0 -0 -0 -0 -0 -0 -0 -0 -0 -0 -0 -22 -0 -0 -0 -0 -0 -0 -0 -0 -1 -0 -0 -0 -0 -0 -0 -0 -0 -0 -0 -0
-0 -0 -0 -0 -0 -0 -0 -0 -0 -0 -0 -0 -0 -0 -0 -0 -0 -0 -0 -0 -0 -0 -0 -0 -12 -0 -0 -0 -0 -0 -0 -0 -0 -0 -0 -0 -0 -0 -0 -0 -0 -0 -0 -0 -0
-0 -0 -0 -0 -0 -0 -0 -0 -0 -0 -0 -0 -0 -0 -0 -0 -0 -0 -12 -0 -0 -0 -0 -0 -0 -0 -1 -0 -0 -0 -0 -0 -0 -0 -0 -0 -0 -0 -0 -0 -12 -0 -0 -0 -0
-4 -0 -0 -2 -0 -0 -0 -0 -0 -1 -0 -0 -0 -0 -0 -0 -3 -0 -0 -0 -1 -0 -0 -0 -0 -0 -4 -0 -0 -2 -0 -0 -0 -0 -0 -0 -0 -0 -0 -0 -0 -0 -0 -0 -0
Wind_Speed
11 11 11 7 6 8 8 8 8 8 9 8 7 6 7 10 13 12 16 7 4 3 6 9 8 7 7 7 7 5 8 11 13 10 4 5 9 4 3 6 4 3 3 4 2
12 12 13 6 6 7 7 8 9 9 10 8 8 5 6 8 12 16 11 6 8 2 14 12 11 9 10 9 7 12 12 15 6 9 7 6 7 3 7 7 7 8 5 3 5
11 11 12 11 6 7 6 6 9 10 9 9 8 6 4 9 12 6 5 1 5 12 16 12 12 12 15 10 12 12 17 13 9 12 9 12 9 6 10 11 10 8 5 7 10
10 10 10 11 10 9 7 8 6 10 10 9 8 6 3 5 8 7 7 5 5 4 9 11 13 16 14 16 16 13 16 13 11 9 11 14 13 12 13 13 7 9 11 12 13
8 9 9 10 10 10 9 9 7 7 9 9 9 9 6 10 13 7 2 1 5 1 2 11 14 16 17 12 16 18 17 11 14 14 15 14 17 18 21 14 15 13 12 13 15
7 9 9 9 9 10 11 10 9 7 8 9 11 11 10 22 1 11 13 12 10 7 5 7 7 12 13 16 15 4 17 17 14 14 15 15 17 11 21 10 10 10 12 13 16
8 8 8 7 10 10 11 10 9 8 8 9 12 13 16 20 4 4 3 7 5 8 9 7 9 10 4 14 14 14 19 18 15 15 16 15 22 23 25 18 15 12 11 11 14
9 8 5 5 8 8 8 10 10 9 7 6 12 9 9 3 18 19 10 4 3 3 6 8 7 11 15 8 9 12 18 20 18 20 19 12 19 18 17 14 15 10 9 7 10
10 8 4 4 4 7 9 11 13 11 8 6 6 4 7 5 14 14 19 15 8 7 5 7 8 13 10 16 16 16 16 20 17 15 13 20 18 20 17 15 16 11 7 6 8
7 8 7 3 2 5 11 14 9 7 8 5 2 4 9 5 6 11 20 17 14 14 10 10 10 14 16 16 20 20 17 18 18 5 14 20 20 16 10 14 15 12 8 8 10
7 6 6 1 3 6 8 3 6 6 12 13 9 12 5 13 6 14 15 19 16 14 23 15 14 27 30 25 22 22 15 21 18 12 12 19 21 17 18 20 19 19 15 11 12
8 5 4 3 2 4 6 4 4 7 9 23 24 22 19 11 7 10 15 16 20 27 21 21 26 29 25 24 22 23 23 24 19 15 14 20 26 24 21 24 21 21 18 16 13
3 5 3 3 2 4 5 8 11 7 7 14 22 28 21 12 7 14 19 15 20 22 30 29 33 24 24 25 24 28 28 24 22 13 14 17 29 29 26 29 24 22 22 20 17
4 2 3 5 4 1 5 3 9 8 6 13 19 22 29 24 17 20 19 11 12 22 24 27 34 28 25 28 27 28 25 24 21 17 18 13 24 27 19 19 18 19 21 22 18
5 5 5 7 1 5 4 6 9 4 7 10 27 5 19 30 14 30 24 20 21 15 20 26 21 29 31 29 25 28 23 22 20 21 20 26 18 27 20 23 21 15 18 18 19
4 5 6 5 5 5 5 7 4 8 13 6 7 18 21 25 31 11 29 29 21 17 17 33 21 22 35 31 23 17 17 13 18 15 20 31 20 30 23 24 18 17 20 20 19
8 7 8 3 3 4 5 4 7 13 1 6 10 14 25 22 25 32 26 28 19 19 16 30 30 25 20 23 28 24 17 13 14 16 22 12 19 30 6 14 14 22 19 16 17
6 5 5 5 5 4 3 6 14 5 24 4 6 19 19 23 24 26 25 26 30 26 21 25 24 33 29 35 26 32 28 15 23 20 23 20 17 24 15 17 19 21 17 16 18
6 4 3 6 8 5 5 10 8 15 11 21 10 7 13 22 16 22 27 29 32 33 27 25 35 21 30 32 26 30 27 33 24 18 11 15 25 33 28 19 10 15 15 18 21
4 5 7 8 9 8 6 10 9 19 19 11 10 8 5 19 20 19 21 18 33 37 34 28 25 29 23 22 32 31 23 21 15 10 23 22 31 27 18 21 18 20 20 19 19
3 3 3 11 8 7 11 11 15 18 16 11 17 9 11 13 7 21 17 20 31 27 33 34 26 24 24 28 31 24 27 22 18 16 14 20 20 33 26 22 18 22 22 19 20
2 5 7 12 7 5 13 6 10 13 12 18 20 21 20 19 14 10 6 18 20 33 30 35 16 28 29 24 29 32 30 29 14 16 21 22 23 17 6 13 19 23 23 19 18
3 3 4 11 9 11 6 6 16 15 15 11 15 18 15 13 6 9 9 4 20 21 23 26 17 22 20 26 18 25 28 29 28 7 20 19 23 20 24 12 12 17 17 14 16
3 5 4 5 10 15 14 15 14 13 19 20 22 19 21 20 18 12 20 15 11 20 27 17 20 23 25 25 24 21 31 31 29 19 22 23 31 30 10 15 14 14 14 16 17
5 6 7 6 11 18 14 7 13 12 15 14 11 20 20 17 13 17 23 29 24 21 10 10 10 26 32 31 29 33 31 36 35 34 30 32 38 42 27 19 15 14 13 16 19
4 4 5 11 12 19 20 18 21 22 18 13 18 20 18 18 19 17 21 17 19 10 12 5 12 22 25 32 34 36 31 32 38 38 36 37 37 41 23 23 19 15 17 19 20
2 5 4 8 16 17 16 21 21 22 19 24 22 20 19 25 21 20 18 18 19 18 12 12 7 9 22 31 29 25 30 36 36 33 37 35 40 34 28 18 21 19 20 22 21
Wind_Direction
341 341 327 306 318 343 289 264 265 266 264 265 272 288 308 317 300 280 270 264 262 179 300 290 254 226 218 206 215 236 242 244 235 234 213 160 212 182 313 259 208 198 259 67 121
330 334 333 311 320 311 327 308 264 260 262 259 262 273 305 317 296 285 287 248 245 213 262 255 248 214 222 221 202 217 231 243 255 250 255 194 237 185 239 194 214 217 196 196 191
322 326 336 339 326 314 320 332 325 265 254 253 249 252 283 300 281 257 73 7 280 203 242 253 251 233 236 220 209 214 243 238 239 248 268 262 237 226 249 241 239 224 224 222 231
311 325 332 335 340 335 320 306 324 323 261 243 227 220 250 242 252 110 94 64 67 156 201 226 220 217 228 223 224 247 234 253 240 244 245 252 276 254 257 266 255 263 276 276 236
303 312 317 325 333 336 332 317 303 299 305 245 211 182 211 220 236 144 267 238 324 57 222 223 231 224 234 235 237 236 249 228 245 247 248 263 259 272 269 269 264 272 264 256 250
292 297 307 315 324 326 330 328 305 299 316 269 205 177 227 243 187 250 268 277 270 261 273 238 242 247 281 254 236 252 251 252 235 235 235 244 252 252 261 248 262 261 260 248 247
272 286 296 314 321 319 317 315 308 289 295 313 208 196 228 235 162 195 262 268 272 262 252 240 273 241 253 258 251 263 257 249 229 235 238 244 252 244 255 264 269 265 257 257 252
269 271 275 311 317 316 323 316 312 283 271 303 206 206 237 251 241 250 235 275 211 239 254 249 228 252 254 274 243 241 239 253 241 230 224 226 255 239 243 241 233 249 267 258 246
267 271 247 278 328 334 323 308 295 281 240 272 210 199 247 156 217 227 239 230 215 241 246 257 234 228 218 237 246 224 252 232 252 225 233 220 248 244 243 220 234 222 237 253 248
260 267 258 259 339 352 321 293 290 265 216 228 289 147 238 209 198 231 218 221 222 232 234 227 227 221 221 222 229 232 228 250 247 193 231 239 243 255 202 216 220 230 225 230 234
254 254 242 170 9 11 325 281 207 204 221 210 185 227 113 215 184 218 196 199 203 214 218 194 214 223 221 221 246 259 254 252 252 249 285 259 260 254 244 234 230 243 240 229 227
241 259 197 152 34 355 304 278 330 14 284 224 248 224 243 177 178 185 180 184 192 211 208 214 226 229 234 237 231 243 247 248 256 264 285 274 271 267 255 250 246 242 239 233 221
233 236 168 160 11 267 275 278 337 332 267 251 226 233 208 200 204 184 193 200 198 211 208 215 231 226 234 228 230 230 235 244 253 248 248 280 279 259 251 249 242 246 244 246 222
203 174 141 145 233 206 239 16 326 305 265 248 218 232 216 218 238 215 204 191 207 218 217 228 235 234 223 230 221 238 231 248 257 254 253 235 273 273 267 261 245 225 238 233 209
206 190 165 206 106 216 50 313 312 223 246 198 209 175 203 200 215 208 200 216 228 204 198 224 225 227 231 225 224 243 246 246 237 244 257 250 263 265 268 259 241 229 231 220 212
212 196 170 183 235 260 306 308 270 211 227 228 185 199 185 202 217 215 202 215 218 241 222 241 230 220 229 232 230 237 234 238 237 237 242 242 243 270 256 258 239 244 239 220 207
222 207 212 189 258 195 235 229 221 233 210 211 194 202 206 198 215 217 190 199 199 187 195 235 238 237 228 232 224 213 209 217 217 214 239 235 223 248 237 295 255 234 233 221 203
216 212 209 214 184 181 251 206 226 227 247 47 299 210 215 217 212 211 207 203 208 199 204 224 222 215 211 221 211 213 213 220 223 230 242 224 243 244 233 258 263 250 238 211 197
198 204 202 188 199 193 207 212 233 244 270 252 262 318 225 215 232 207 224 223 204 219 215 222 232 226 216 218 221 219 212 225 250 277 281 260 234 248 257 248 243 234 228 196 197
186 211 200 183 177 182 212 233 234 237 260 309 286 209 272 224 204 204 198 219 229 217 228 238 250 220 213 220 221 228 212 219 225 215 234 243 254 265 249 253 214 226 218 209 195
169 217 149 156 165 198 231 223 233 246 259 243 264 284 298 287 281 217 201 218 207 224 221 235 241 250 229 204 210 209 222 212 219 219 234 250 249 253 255 251 217 221 217 205 192
178 214 142 159 189 207 233 226 263 260 255 253 263 264 266 284 292 274 299 245 206 213 215 224 234 246 235 219 221 221 211 211 211 207 221 231 255 244 305 264 230 225 218 199 192
205 209 188 190 220 222 218 240 249 253 252 243 248 259 258 273 282 327 348 318 324 350 227 219 218 240 241 246 219 220 216 219 212 225 218 213 243 239 249 228 236 228 212 197 187
179 196 172 226 238 241 232 233 235 242 251 249 257 267 272 270 263 281 290 289 296 306 317 309 238 214 231 220 222 234 227 219 213 218 222 215 239 240 238 238 226 222 199 189 186
192 229 194 194 224 225 231 235 227 233 235 241 244 243 253 266 260 253 262 272 276 273 295 313 241 219 241 241 248 220 221 224 225 218 221 227 231 248 232 226 220 202 184 184 186
191 204 224 251 230 220 232 231 238 245 242 246 249 262 262 264 263 264 266 274 276 260 279 306 299 234 240 243 238 245 239 225 229 228 230 235 243 249 240 240 214 200 190 194 193
180 244 264 245 236 244 238 232 243 250 249 246 254 261 262 255 276 276 277 280 269 279 261 256 250 306 235 237 245 247 237 240 232 231 231 233 234 245 238 223 213 194 195 198 194